Wind_Speed
54 55 52 52 54 57 57 55 53 51 58 62 54 48 46 50 56 53 51 51 48 44 45 42 39 41 41 36 36 34 38 44 52 52 40 45 43 34 37 37 44 49 44
56 54 53 52 52 55 55 54 53 49 48 47 46 44 45 46 51 53 53 52 50 44 42 43 41 40 40 36 35 34 35 38 43 45 46 49 50 55 59 54 42 47 44
56 55 55 54 53 53 52 50 49 47 45 42 42 43 44 43 43 43 44 47 48 44 41 40 40 37 33 33 34 36 34 34 37 37 44 46 53 43 40 42 45 46 42
56 57 57 55 53 50 46 48 48 46 44 45 44 44 42 40 39 38 37 37 39 40 37 37 34 29 28 30 29 30 28 30 35 33 34 33 39 42 43 46 42 47 46
56 56 55 53 50 45 43 44 46 47 46 44 43 38 37 40 40 37 36 34 33 34 31 32 26 24 26 28 28 30 35 33 29 41 35 26 29 42 41 40 44 40 43
51 55 56 53 47 43 43 45 43 43 42 40 36 36 37 39 39 38 32 31 31 29 25 24 23 22 26 27 30 34 36 35 36 34 32 27 31 33 37 37 31 37 32
61 52 49 46 44 39 39 35 31 29 29 29 33 36 33 30 27 29 28 28 28 24 22 21 22 25 23 26 31 31 27 24 25 24 29 30 28 32 36 33 32 15 8
49 45 41 40 38 37 35 31 31 32 30 28 28 24 23 22 22 23 23 23 22 20 20 20 21 22 25 27 28 25 26 26 26 25 27 31 32 30 23 11 4 5 12
51 43 37 35 35 32 32 34 32 30 23 22 18 19 18 22 22 20 20 20 19 19 21 19 20 21 25 25 20 27 24 27 22 23 28 27 19 11 11 4 5 9 15
42 41 34 30 30 31 31 28 21 17 15 13 14 15 16 16 20 19 20 20 21 23 19 17 17 21 22 18 16 17 8 15 21 26 24 20 13 6 1 4 10 17 22
24 25 26 30 29 31 28 20 16 12 14 14 15 15 14 16 16 16 18 20 20 17 14 16 18 17 19 12 18 9 17 22 17 15 12 9 6 5 5 12 19 23 28
24 20 13 14 16 17 16 13 12 14 12 11 14 15 15 13 17 14 15 15 15 11 13 14 14 15 9 17 20 20 12 13 12 9 5 3 7 10 15 20 26 31 35
9 10 10 12 13 14 14 15 16 13 11 20 24 22 17 18 15 11 13 11 9 11 13 13 13 11 7 10 15 20 12 7 6 6 4 7 11 17 22 26 30 33 38
16 16 14 15 16 18 18 16 16 21 29 26 17 26 15 13 11 12 12 9 8 8 11 13 13 7 13 13 23 15 8 5 3 6 9 13 17 20 24 28 32 37 42
19 18 18 23 28 26 28 27 31 32 32 23 20 15 10 11 11 9 8 8 9 8 10 7 10 18 24 19 11 9 6 3 3 8 13 17 21 25 29 32 36 39 38
22 25 30 32 32 31 27 32 35 33 24 24 17 11 17 11 10 8 9 3 6 14 20 27 25 24 19 15 8 3 2 6 10 14 18 22 24 26 28 32 37 37 34
37 40 41 39 30 28 26 29 26 23 20 20 19 17 12 9 11 8 3 6 15 25 31 31 24 16 8 5 2 5 9 12 16 19 22 25 26 28 31 34 33 30 29
40 39 40 34 32 31 33 34 32 29 23 18 16 13 12 11 5 13 22 32 32 31 26 17 11 8 5 3 6 10 14 16 20 22 25 26 26 28 29 28 25 23 25
36 38 37 36 35 35 31 31 28 24 20 17 19 20 17 13 23 31 33 28 21 17 13 10 7 4 4 8 12 14 17 20 24 25 25 25 25 25 26 24 21 19 21
36 34 34 32 29 26 25 23 20 23 26 25 20 14 31 33 28 24 22 21 17 13 9 5 5 9 11 14 18 21 22 22 22 24 26 27 27 26 24 21 18 17 19
35 31 27 26 23 23 26 32 32 29 24 17 16 25 27 23 22 20 18 14 10 8 7 8 10 14 15 16 17 20 23 24 26 29 29 27 25 24 22 19 17 14 15
25 30 33 36 36 39 36 31 25 22 25 31 30 24 21 19 17 15 12 9 8 9 11 11 11 12 16 20 22 24 27 27 27 26 25 24 23 21 18 16 13 11 11
33 35 36 39 37 35 32 28 34 37 32 27 22 18 15 16 14 11 9 9 9 8 9 11 15 18 21 22 24 25 26 24 24 23 22 21 20 19 18 16 13 10 8
37 36 33 30 29 31 37 36 33 30 25 21 17 15 14 12 9 8 9 10 11 13 15 18 19 21 22 23 23 24 24 22 21 20 19 19 19 18 18 17 13 9 6
35 43 43 42 41 37 33 29 25 22 19 17 15 13 11 10 9 9 10 12 14 16 19 21 22 22 22 21 21 21 20 19 19 19 20 20 20 18 18 17 14 10 6
43 39 36 34 31 28 26 24 21 19 16 15 13 11 11 10 11 12 14 16 18 20 20 20 21 20 19 20 21 20 19 19 19 19 18 19 19 18 17 17 15 13 7
Wind_Direction
279 281 285 290 292 293 294 288 283 274 266 268 270 270 267 264 267 268 266 269 271 269 269 269 267 268 273 279 279 280 273 267 267 267 265 258 261 241 255 282 283 276 283
277 279 283 284 287 291 292 286 284 281 275 269 267 267 268 268 270 268 266 265 266 269 267 267 269 270 275 275 280 282 275 267 262 259 258 248 263 256 256 284 280 276 283
277 280 283 285 288 290 289 284 281 279 278 275 275 273 276 272 266 267 266 264 263 265 267 266 268 272 278 278 278 280 277 272 260 260 253 252 255 266 255 257 263 267 270
282 282 283 285 286 289 282 279 278 277 275 274 274 275 270 265 266 268 268 266 262 264 268 267 269 274 276 275 276 280 286 277 262 251 250 260 244 255 250 260 258 262 266
282 283 285 283 284 288 281 278 273 271 271 270 272 267 266 261 263 266 263 264 263 262 264 266 274 269 267 268 273 280 279 280 271 255 254 255 262 245 250 262 272 265 253
280 283 281 282 281 283 283 283 276 270 267 268 264 265 264 264 266 262 262 256 258 256 258 264 260 260 260 271 283 281 288 282 277 261 244 243 245 255 245 252 255 257 251
281 282 276 275 277 279 281 277 280 274 266 268 273 270 267 261 257 252 251 250 252 248 251 249 251 253 267 277 280 287 282 281 289 247 250 244 239 239 245 255 249 224 262
278 276 267 270 274 276 270 271 277 275 270 271 268 259 249 255 251 247 238 240 235 233 237 240 249 261 269 274 285 278 276 282 272 256 247 232 227 229 227 199 188 287 285
281 276 272 270 268 265 265 270 270 270 264 268 253 241 240 247 246 236 223 218 217 224 228 237 250 264 269 290 278 306 302 289 242 220 231 232 198 136 69 35 277 287 312
282 280 267 251 250 255 263 262 255 253 249 228 241 242 232 227 217 208 204 204 216 221 224 242 257 275 281 298 281 269 173 156 154 122 84 73 83 94 71 313 334 334 330
273 278 260 243 247 253 255 248 241 233 209 231 230 215 208 193 193 189 204 212 212 215 232 244 256 280 311 302 308 156 88 71 82 94 107 96 75 43 352 343 342 337 331
279 278 243 231 232 230 223 211 200 199 202 196 186 168 156 162 177 196 201 216 205 219 242 255 270 286 290 263 290 124 116 108 98 87 96 59 22 4 350 343 341 339 332
236 174 161 158 163 165 170 178 177 175 172 157 151 141 161 179 186 197 204 209 216 236 253 270 279 273 278 270 166 107 104 124 98 57 7 7 358 351 349 345 339 333 330
142 141 143 137 132 136 140 142 141 143 141 149 153 163 170 183 198 213 213 199 226 243 265 271 259 247 174 174 114 113 122 91 49 11 1 356 349 344 341 338 336 335 333
133 133 128 129 127 123 124 124 134 135 139 144 141 155 170 192 184 166 185 204 196 218 226 196 188 168 126 103 114 104 113 208 314 348 348 348 343 341 341 339 339 336 326
116 120 122 125 126 131 129 133 133 132 130 143 149 153 129 145 168 181 199 218 195 168 162 160 139 105 106 112 121 171 332 349 346 343 344 343 341 340 338 337 336 334 335
111 117 118 116 118 119 122 129 124 127 126 134 141 141 141 135 116 114 127 127 138 147 117 100 101 112 130 143 84 3 345 338 340 341 341 340 338 337 337 338 336 335 340
117 116 121 120 120 118 119 124 123 123 127 126 124 113 100 104 125 130 147 129 101 89 91 96 105 124 117 33 353 340 337 339 340 340 337 336 337 336 335 332 332 338 341
110 113 118 122 122 123 125 122 124 128 124 109 108 114 107 132 143 124 107 106 104 99 101 108 105 68 5 349 346 346 343 343 341 335 334 337 336 331 330 332 336 335 337
112 116 119 119 119 121 122 124 119 116 112 113 114 100 123 115 109 104 100 96 100 105 108 89 33 6 356 355 351 343 339 338 338 339 339 337 332 331 334 335 331 331 340
111 109 127 129 128 130 131 123 112 112 110 111 107 131 123 110 106 98 94 97 96 82 47 21 7 359 346 337 339 346 348 344 341 341 339 337 336 337 338 335 332 331 336
107 120 122 118 120 120 120 120 120 116 118 119 121 113 111 102 97 91 82 68 51 32 15 360 343 340 348 353 354 351 347 345 344 342 339 337 337 339 341 337 335 333 338
110 114 118 122 125 124 119 111 115 114 113 110 105 103 96 86 74 61 44 30 18 5 353 353 357 358 358 355 352 351 352 352 347 340 340 342 344 347 347 346 346 343 345
123 120 121 124 124 116 115 111 107 106 108 108 104 93 76 67 56 40 26 14 7 2 359 358 358 357 356 356 358 358 353 348 345 345 349 352 355 354 353 356 359 358 4
110 111 109 107 106 106 106 106 105 101 95 87 76 68 57 43 26 18 12 8 2 360 359 358 355 355 356 358 358 356 353 350 351 353 357 360 1 1 2 5 7 12 29
110 109 108 107 106 105 104 99 93 88 82 73 60 45 30 18 13 10 5 1 359 358 355 353 353 354 356 358 357 355 353 353 355 357 358 1 2 3 7 11 14 20 35
Height
5681 5680 5678 5675 5672 5668 5665 5661 5659 5660 5660 5662 5664 5666 5667 5667 5666 5669 5670 5670 5671 5673 5676 5679 5681 5682 5683 5683 5682 5681 5682 5681 5681 5685 5688 5689 5690 5693 5695 5694 5695 5695 5693
5667 5666 5665 5663 5660 5655 5651 5647 5644 5645 5646 5647 5649 5652 5654 5655 5654 5655 5658 5659 5660 5662 5666 5668 5670 5672 5674 5674 5673 5673 5672 5670 5670 5672 5674 5677 5680 5682 5681 5682 5681 5682 5681
5651 5651 5650 5648 5644 5641 5637 5633 5632 5632 5634 5635 5637 5639 5641 5642 5641 5643 5644 5647 5650 5653 5655 5658 5660 5661 5664 5664 5663 5662 5660 5659 5658 5659 5661 5663 5669 5671 5673 5673 5673 5671 5671
5635 5635 5634 5632 5630 5628 5624 5621 5620 5620 5622 5624 5626 5628 5629 5631 5631 5634 5635 5638 5640 5644 5647 5649 5651 5654 5655 5655 5653 5652 5649 5648 5646 5648 5651 5651 5656 5659 5660 5661 5660 5660 5660
5619 5618 5618 5617 5615 5613 5611 5609 5608 5609 5610 5612 5614 5616 5618 5620 5621 5624 5627 5630 5633 5635 5639 5642 5645 5647 5647 5646 5645 5643 5640 5638 5636 5636 5639 5643 5646 5646 5648 5649 5648 5646 5647
5601 5601 5601 5600 5599 5598 5598 5595 5594 5596 5598 5601 5603 5605 5608 5609 5612 5616 5619 5623 5626 5629 5633 5637 5638 5639 5637 5637 5635 5632 5630 5627 5625 5625 5628 5630 5634 5637 5638 5638 5638 5638 5639
5584 5583 5583 5583 5583 5585 5586 5584 5584 5586 5588 5590 5593 5595 5597 5599 5602 5606 5611 5616 5620 5624 5628 5631 5632 5631 5632 5629 5626 5623 5620 5617 5615 5615 5620 5621 5625 5628 5627 5628 5628 5629 5634
5562 5562 5564 5568 5570 5573 5573 5575 5576 5577 5580 5581 5584 5587 5589 5593 5597 5601 5605 5611 5615 5619 5622 5625 5626 5627 5625 5622 5619 5617 5613 5610 5609 5611 5612 5613 5615 5616 5617 5619 5624 5629 5632
5544 5545 5548 5553 5557 5559 5562 5565 5567 5569 5572 5575 5577 5580 5584 5588 5593 5596 5601 5606 5610 5613 5617 5619 5621 5620 5618 5616 5612 5607 5602 5602 5601 5604 5607 5609 5608 5611 5617 5622 5627 5628 5625
5529 5530 5533 5539 5544 5548 5552 5556 5560 5563 5567 5570 5573 5576 5579 5584 5589 5593 5597 5603 5606 5609 5613 5617 5618 5616 5614 5613 5610 5606 5603 5601 5600 5601 5606 5611 5614 5618 5621 5624 5623 5620 5617
5522 5521 5522 5527 5534 5539 5545 5550 5555 5559 5563 5566 5570 5574 5578 5583 5589 5593 5597 5601 5603 5607 5611 5613 5613 5613 5612 5610 5608 5606 5605 5606 5608 5609 5613 5616 5616 5618 5620 5618 5615 5614 5610
5515 5515 5517 5522 5528 5534 5541 5546 5551 5555 5560 5565 5570 5575 5580 5585 5590 5594 5597 5600 5603 5606 5608 5610 5610 5610 5610 5609 5607 5607 5611 5612 5613 5615 5617 5616 5615 5615 5614 5612 5608 5603 5602
5510 5513 5517 5522 5527 5533 5539 5544 5549 5554 5559 5566 5572 5578 5584 5588 5592 5595 5598 5600 5602 5604 5605 5606 5607 5607 5608 5608 5608 5609 5613 5614 5615 5616 5615 5614 5613 5611 5608 5605 5603 5600 5596
5510 5516 5521 5525 5531 5535 5541 5545 5550 5555 5562 5569 5574 5581 5586 5590 5593 5595 5597 5599 5600 5601 5603 5603 5604 5605 5605 5606 5609 5612 5615 5616 5616 5616 5614 5612 5611 5609 5606 5603 5599 5594 5588
5514 5520 5524 5529 5534 5540 5545 5550 5556 5562 5568 5575 5581 5585 5588 5591 5593 5596 5598 5599 5600 5600 5600 5601 5602 5603 5605 5611 5614 5616 5618 5617 5617 5615 5613 5610 5608 5605 5600 5597 5592 5587 5581
5520 5524 5529 5535 5541 5547 5554 5558 5561 5569 5575 5580 5584 5587 5589 5593 5596 5597 5597 5598 5598 5598 5598 5600 5603 5607 5612 5616 5618 5618 5618 5616 5614 5612 5610 5607 5603 5600 5597 5592 5585 5578 5570
5528 5533 5539 5546 5552 5557 5562 5568 5574 5577 5580 5583 5588 5591 5593 5595 5598 5598 5597 5597 5599 5602 5604 5608 5611 5615 5618 5620 5619 5618 5617 5615 5612 5609 5606 5602 5599 5595 5590 5583 5576 5570 5566
5540 5545 5550 5555 5560 5566 5571 5574 5578 5583 5588 5592 5594 5595 5597 5598 5599 5600 5602 5603 5606 5608 5610 5614 5617 5620 5621 5620 5619 5617 5614 5611 5608 5605 5603 5599 5594 5588 5582 5577 5572 5568 5565
5554 5557 5561 5566 5570 5574 5578 5582 5585 5589 5592 5596 5598 5599 5601 5603 5605 5607 5608 5610 5613 5615 5618 5620 5622 5622 5621 5619 5616 5614 5611 5609 5605 5602 5598 5592 5587 5582 5577 5573 5569 5567 5564
5565 5568 5572 5576 5580 5584 5587 5591 5594 5596 5598 5601 5604 5607 5609 5610 5613 5615 5616 5617 5619 5621 5623 5624 5623 5622 5619 5617 5613 5610 5608 5605 5601 5597 5591 5586 5581 5577 5573 5570 5567 5564 5561
5575 5578 5581 5584 5587 5590 5593 5598 5601 5604 5607 5610 5612 5615 5617 5618 5620 5621 5622 5624 5625 5625 5625 5624 5622 5620 5618 5615 5613 5609 5605 5600 5596 5591 5586 5581 5577 5574 5570 5567 5565 5562 5560
5583 5585 5588 5591 5596 5600 5603 5607 5609 5611 5614 5617 5622 5624 5625 5626 5626 5627 5627 5628 5628 5626 5625 5624 5622 5620 5616 5613 5608 5605 5600 5596 5591 5587 5583 5579 5576 5572 5569 5566 5563 5561 5559
5594 5597 5600 5603 5607 5610 5613 5615 5618 5620 5624 5627 5629 5631 5632 5630 5630 5631 5631 5630 5629 5627 5626 5623 5621 5617 5613 5610 5606 5602 5598 5593 5590 5586 5583 5579 5575 5571 5568 5564 5561 5559 5558
5606 5609 5612 5614 5616 5619 5622 5626 5629 5631 5633 5634 5635 5636 5635 5635 5634 5633 5632 5631 5630 5628 5625 5622 5619 5615 5612 5608 5604 5600 5597 5593 5590 5586 5582 5577 5574 5570 5567 5563 5561 5559 5558
5616 5620 5623 5626 5628 5630 5633 5635 5637 5639 5640 5640 5640 5639 5639 5638 5637 5635 5633 5631 5629 5626 5623 5620 5617 5614 5610 5607 5604 5600 5596 5593 5589 5585 5581 5577 5574 5570 5567 5564 5562 5559 5558
5629 5631 5633 5635 5637 5639 5641 5643 5644 5645 5645 5644 5643 5643 5642 5640 5638 5636 5634 5631 5629 5626 5623 5620 5617 5613 5610 5607 5603 5599 5595 5591 5587 5584 5581 5578 5575 5572 5569 5566 5563 5560 5559